Flag for U.S.A. Weather past 2 weeks in El Paso, Texas, U.S.A.

Now
70 °F

Passing clouds.


Feels Like: 77 °F
Forecast: 69 / 91 °F
Wind: 13 mph from North

Location: El Paso International Airport

Current Time: May 30, 2015 at 5:37:00 AM

Latest Report: May 30, 2015 at 4:51 AM


Visibility: 10 mi

Pressure: 29.82 "Hg

Humidity: 34%

Dew point: 40 °F

Location of El PasoLocation

Historic Weather in El Paso — Graph

°F

El Paso temperature yesterday

Maximum temperature yesterday: 95 °F (at 3:51 PM)
Minimum temperature yesterday: 63 °F (at 5:51 AM)
Average temperature yesterday: 82 °F

Past Weeks' High & Low Weather Summary

 TemperatureHumidityPressure
High95 °F (May 29, 3:51 PM)84% (May 22, 1:51 AM)30.09 "Hg (May 22, 1:51 AM)
Low56 °F (May 17, 5:51 AM)4% (May 22, 6:51 PM)29.54 "Hg (May 15, 6:51 PM)
Average75 °F24%29.77 "Hg
* Reported May 15 3:51 AM — May 30 3:51 AM, El Paso, Weather by CustomWeather, © 2015

Note: Actual official high and low records may vary slightly from our data, if they occured in-between our weather recording intervals... More about our weather records

Advertising

El Paso weather history for previous 24 hours

 ConditionsComfort  
Time TempWeatherWind HumidityBarometerVisibility
3:51 AM
Sat, May 30
71 °FPassing clouds.6 mph25%29.78 "Hg10 mi
2:51 AM74 °FPassing clouds.No wind26%29.78 "Hg10 mi
1:51 AM75 °FPartly cloudy.3 mph32%29.78 "Hg10 mi
12:51 AM75 °FPassing clouds.9 mph20%29.77 "Hg10 mi
11:51 PM
Fri, May 29
79 °FPassing clouds.3 mph12%29.75 "Hg10 mi
10:51 PM83 °FPassing clouds.3 mph10%29.75 "Hg10 mi
9:51 PM85 °FPassing clouds.6 mph9%29.73 "Hg10 mi
8:51 PM88 °FPassing clouds.8 mph8%29.71 "Hg10 mi
7:51 PM90 °FPassing clouds.10 mph8%29.71 "Hg10 mi
6:51 PM92 °FPassing clouds.12 mph7%29.72 "Hg10 mi
5:51 PM94 °FPassing clouds.13 mph6%29.71 "Hg10 mi
4:51 PM95 °FPassing clouds.16 mph6%29.70 "Hg10 mi
3:51 PM95 °FPassing clouds.13 mph7%29.71 "Hg10 mi
2:51 PM92 °FPassing clouds.3 mph7%29.74 "Hg10 mi
1:51 PM91 °FPassing clouds.5 mph8%29.77 "Hg10 mi
12:51 PM92 °FPassing clouds.No wind8%29.78 "Hg10 mi
11:51 AM89 °FPassing clouds.No wind8%29.79 "Hg10 mi
10:51 AM85 °FPassing clouds.No wind9%29.80 "Hg10 mi
9:51 AM81 °FScattered clouds.No wind11%29.81 "Hg10 mi
8:51 AM77 °FSunny.No wind13%29.81 "Hg10 mi
7:51 AM71 °FSunny.No wind19%29.80 "Hg10 mi
6:51 AM64 °FClear.6 mph24%29.79 "Hg10 mi
5:51 AM63 °FPassing clouds.7 mph21%29.77 "Hg10 mi
Weather by CustomWeather, © 2015

See weather overviewHow to use our weather pages